Tracking 19562 objects as of 23-Mar-2019
HD Live streaming from Space Station
objects crossing your sky now

IRS 1B

Track IRS 1B now!
10-day predictions
IRS 1B is classified as:


NORAD ID: 21688
Int'l Code: 1991-061A
Perigee: 892.0 km
Apogee: 928.4 km
Inclination: 99.1 °
Period: 103.1 minutes
Semi major axis: 7281 km
RCS: 4.2636 m2 (large)
Launch date: August 29, 1991
Source: India (IND)
Launch site: TYURATAM MISSILE AND SPACE COMPLEX (TTMTR)
aabbcc
Your satellite tracking list
Your tracking list is empty




NASA's NSSDC Master Catalog

Two Line Element Set (TLE):
1 21688U 91061A   19081.86119337  .00000237  00000-0  20043-3 0  9993
2 21688  99.1097  26.7996 0024957  15.5456  47.2374 13.97332954299535
Source of the keplerian elements: AFSPC